星链-30555 (STARLINK-30555 )

导读

STARLINK-30555是美国太空探索技术公司(SpaceX)星链互联网星座的卫星之一,于2023年10月9日发射入轨。星链项目旨在构建全球卫星互联网,为全球偏远地区、海洋等网络覆盖薄弱区域提供高速网络服务,该卫星的发射进一步扩充了星链星座的在轨规模,推进了星座组网进程。

Basic Information
目录编号:
58040
目录名称:
STARLINK-30555
国际标识:
2023-156N
轨道中心:
EARTH
卫星名称:
星链-30555
卫星全名:
星链-30555 (STARLINK-30555 )
卫星状态:
在轨 (已飞行985 天)
发射日期:
2023-10-09 UTC
国别 :
美国 (US)
星等 :
--
Orbit Information
数据来源 国际轨道数据 AOE轨道数据
星历时间 2026-06-19T10:19:16+0800
1天前
查看轨道信息
2026-06-14T01:00:00+0800
6天前
查看轨道信息
半长轴 6840.867km 6840.863km
偏心率 0.0001273 0.0001067
轨道倾角 53.162° 53.160°
近地点辐角 85.825° 87.762°
升交点赤经 56.105° 81.296°
平近点角 274.290° 11.335°
近地点 461.859km 461.996km
远地点 463.601km 463.456km
周期 93.848分钟 93.848分钟
每日圈数 15.34391 15.343926
Detailed Information
固有亮度:
5
最大亮度:
0.3
卫星平台:
Starlink v2.0 mini
覆盖范围:
全球
运营商:
太空探索技术公司
运营商所在国:
美国
制造商(研发单位):
太空探索技术公司
制造商所在国:
美国
使用方式:
暂无
Satellite Introduction
星链(Starlink)计划是由太空探索技术公司(SpaceX)提出的一个巨型低轨卫星互联网星座项目,计划在2019年至2024年间在太空搭建由约1.2万颗卫星组成的“星链”网络,其中1584颗将部署在地球上空550千米处的近地轨道,并从2020年开始工作。该卫星仍在工作。
2D Orbit Map
3D Orbit Map
Orbit Altitude Analysis Chart
Orbit Inclination Analysis Chart
Orbit Comprehensive Analysis Chart
View Comprehensive Chart